Weather History for Port Angeles, WA

Change the Weather History Date:

Tuesday, May 7, 2013

  Actual Average Record
Temperature  
Mean Temperature 52 °F -  
Max Temperature 60 °F 60 °F 73 °F (1969)
Min Temperature 46 °F 43 °F 34 °F (1988)
Degree Days  
Heating Degree Days 12    
Growing Degree Days 2 (Base 50)    
Moisture  
Dew Point 47 °F    
Average Humidity 88    
Maximum Humidity 100    
Minimum Humidity 69    
Precipitation  
Precipitation 0.00 in - - ()
Sea Level Pressure  
Sea Level Pressure 29.94 in    
Wind  
Wind Speed 6 mph (NW)    
Max Wind Speed 16 mph    
Max Gust Speed 21 mph    
Visibility 8 miles    
Events      
Averages and records for this station are not official NWS values.
T = Trace of Precipitation, MM = Missing Value Source: NWS Daily Summary

Daily Weather History Graph

Daily Weather History Graph

Search for Another Location

Airport:

Trip Planner

Search our weather history database for the weather conditions in past years. The results will help you decide how hot, cold, wet, or windy it might be!

Date:

Astronomy

May. 07, 2013 Rise Set
Actual Time 5:45 AM PDT 8:36 PM PDT
Civil Twilight 5:09 AM PDT 9:12 PM PDT
Nautical Twilight 4:23 AM PDT 9:58 PM PDT
Astronomical Twilight 3:28 AM PDT 10:54 PM PDT
Moon 4:32 AM PDT (5/7) 6:34 PM PDT (5/7)
Length of Visible Light 16h 02m
Length of Day
14h 50m
Waning Crescent, 5% of the Moon is Illuminated
May 7
Waning Crescent
May 9
New
May 17
First Quarter
May 24
Full
May 31
Last Quarter

Hourly Weather History & Observations

Time (PDT) Temp. Windchill Dew Point Humidity Pressure Visibility Wind Dir Wind Speed Gust Speed Precip Events Conditions
12:53 AM 48.2 °F - 46.4 °F 93% 29.84 in 10.0 mi NW 5.8 mph - N/A   Clear
1:44 AM 46.9 °F - 46.0 °F 97% 29.85 in 9.0 mi WNW 4.6 mph - N/A   Partly Cloudy
1:53 AM 46.9 °F - 45.0 °F 93% 29.86 in 10.0 mi NW 3.5 mph - N/A   Partly Cloudy
2:17 AM 46.9 °F - 45.0 °F 93% 29.86 in 9.0 mi WNW 3.5 mph - N/A   Mostly Cloudy
2:53 AM 46.4 °F 45.2 °F 46.4 °F 100% 29.87 in 4.0 mi WNW 3.5 mph - N/A   Overcast
3:04 AM 46.9 °F - 46.0 °F 97% 29.87 in 2.0 mi NW 3.5 mph - N/A   Overcast
3:15 AM 46.9 °F - 46.0 °F 97% 29.88 in 2.5 mi WNW 4.6 mph - N/A   Overcast
3:46 AM 46.9 °F - 46.0 °F 97% 29.89 in 3.0 mi WNW 3.5 mph - N/A   Overcast
3:53 AM 46.9 °F - 46.0 °F 97% 29.90 in 4.0 mi WNW 4.6 mph - N/A   Overcast
4:03 AM 46.9 °F - 46.0 °F 97% 29.90 in 3.0 mi Variable 3.5 mph - N/A   Overcast
4:53 AM 46.9 °F - 45.0 °F 93% 29.91 in 7.0 mi West 10.4 mph - N/A   Overcast
5:53 AM 46.9 °F - 46.0 °F 97% 29.91 in 4.0 mi West 10.4 mph - N/A   Overcast
6:53 AM 48.0 °F - 46.0 °F 93% 29.94 in 9.0 mi West 9.2 mph - N/A   Overcast
7:53 AM 48.9 °F - 48.0 °F 97% 29.95 in 10.0 mi West 5.8 mph - N/A   Overcast
8:41 AM 50.0 °F - 46.9 °F 89% 29.96 in 10.0 mi NNW 3.5 mph - N/A   Overcast
8:53 AM 50.0 °F - 46.9 °F 89% 29.97 in 10.0 mi North 4.6 mph - N/A   Overcast
9:53 AM 53.1 °F - 48.0 °F 83% 29.97 in 10.0 mi Variable 4.6 mph - N/A   Overcast
10:27 AM 53.1 °F - 48.0 °F 83% 29.97 in 10.0 mi Variable 4.6 mph - N/A   Scattered Clouds
10:53 AM 52.0 °F - 46.9 °F 83% 29.97 in 10.0 mi North 8.1 mph - N/A   Clear
11:53 AM 53.1 °F - 48.0 °F 83% 29.98 in 10.0 mi Variable 5.8 mph - N/A   Clear
12:53 PM 54.0 °F - 48.0 °F 80% 29.97 in 10.0 mi North 8.1 mph - N/A   Clear
1:53 PM 57.9 °F - 50.0 °F 75% 29.98 in 10.0 mi NW 6.9 mph - N/A   Clear
2:53 PM 57.2 °F - 50.0 °F 77% 29.97 in 10.0 mi NW 11.5 mph 18.4 mph N/A   Clear
3:53 PM 59.0 °F - 50.0 °F 72% 29.97 in 10.0 mi NW 11.5 mph - N/A   Clear
4:53 PM 59.0 °F - 48.9 °F 69% 29.96 in 10.0 mi NW 12.7 mph - N/A   Clear
5:53 PM 57.9 °F - 48.9 °F 72% 29.96 in 10.0 mi WNW 11.5 mph 18.4 mph N/A   Clear
6:53 PM 57.0 °F - 48.9 °F 74% 29.95 in 10.0 mi WNW 13.8 mph 18.4 mph N/A   Clear
7:53 PM 54.0 °F - 48.0 °F 80% 29.95 in 10.0 mi WNW 11.5 mph - N/A   Clear
8:53 PM 51.1 °F - 46.9 °F 86% 29.96 in 10.0 mi WNW 16.1 mph 20.7 mph N/A   Clear
9:53 PM 50.0 °F - 46.9 °F 89% 29.98 in 10.0 mi WNW 9.2 mph - N/A   Clear
10:05 PM 50.0 °F - 46.9 °F 89% 29.98 in 10.0 mi West 6.9 mph - N/A   Scattered Clouds
10:17 PM 50.0 °F - 46.9 °F 89% 29.98 in 10.0 mi WNW 8.1 mph - N/A   Mostly Cloudy
10:53 PM 50.0 °F - 48.0 °F 93% 30.00 in 10.0 mi WNW 9.2 mph - N/A   Overcast
11:53 PM 51.1 °F - 48.0 °F 89% 30.01 in 10.0 mi WNW 10.4 mph - N/A   Overcast